| time (UTC) | temp F | wind direction | speed MPH | gust MPH | rain 1hr in | rain 24hr in | rain mn in | humidity % | barometer mb |
| 20260507060543 | 67 | 347 | 0.0 | 7.0 | 0.01 | 0.09 | 0.01 | 100 | 1007.8 |
| 20260507060026 | 68 | 355 | 0.0 | 7.0 | 0.01 | 0.09 | 0.01 | 100 | 1007.8 |
| 20260507055342 | 68 | 178 | 1.0 | 6.0 | 0.01 | 0.09 | 0.01 | 100 | 1007.7 |
| 20260507054728 | 69 | 85 | 0.0 | 4.0 | 0.01 | 0.09 | 0.01 | 100 | 1007.7 |
| 20260507054148 | 69 | 339 | 0.0 | 6.0 | 0.01 | 0.09 | 0.01 | 100 | 1007.8 |
| 20260507053629 | 69 | 265 | 0.0 | 6.0 | 0.00 | 0.08 | 0.00 | 100 | 1007.9 |
| 20260507053330 | 70 | 320 | 0.0 | 6.0 | 0.00 | 0.08 | 0.00 | 100 | 1007.8 |
| 20260507053125 | 70 | 320 | 0.0 | 6.0 | 0.00 | 0.08 | 0.00 | 100 | 1007.8 |
| 20260507052927 | 70 | 155 | 1.0 | 6.0 | 0.00 | 0.08 | 0.00 | 100 | 1007.8 |
| 20260507052702 | 70 | 155 | 1.0 | 6.0 | 0.00 | 0.08 | 0.00 | 100 | 1007.8 |
| 20260507051827 | 70 | 257 | 0.0 | 5.0 | 0.00 | 0.08 | 0.00 | 100 | 1007.8 |
| 20260507051245 | 69 | 273 | 0.0 | 2.0 | 0.00 | 0.08 | 0.00 | 100 | 1007.7 |
| 20260507050722 | 69 | 273 | 0.0 | 0.0 | 0.00 | 0.08 | 0.00 | 100 | 1007.7 |
| 20260507050221 | 69 | 273 | 0.0 | 0.0 | 0.00 | 0.08 | 0.00 | 100 | 1007.7 |
| 20260507045528 | 69 | 273 | 0.0 | 0.0 | 0.00 | 0.08 | 0.00 | 100 | 1007.7 |
| 20260507045016 | 69 | 273 | 0.0 | 0.0 | 0.00 | 0.08 | 0.00 | 100 | 1007.8 |
| 20260507044430 | 69 | 273 | 0.0 | 0.0 | 0.00 | 0.08 | 0.00 | 100 | 1007.7 |
| 20260507043825 | 69 | 273 | 0.0 | 0.0 | 0.00 | 0.08 | 0.00 | 100 | 1007.8 |
| 20260507043549 | 69 | 273 | 0.0 | 0.0 | 0.00 | 0.08 | 0.00 | 100 | 1007.7 |
| 20260507042714 | 69 | 273 | 0.0 | 0.0 | 0.00 | 0.08 | 0.00 | 100 | 1007.7 |
| 20260507042137 | 69 | 273 | 0.0 | 0.0 | 0.00 | 0.08 | 0.00 | 100 | 1007.7 |
| 20260507041617 | 69 | 273 | 0.0 | 0.0 | 0.00 | 0.08 | 0.00 | 100 | 1007.6 |
| 20260507041006 | 69 | 273 | 0.0 | 0.0 | 0.00 | 0.08 | 0.00 | 100 | 1007.6 |
| 20260507040436 | 69 | 273 | 0.0 | 0.0 | 0.00 | 0.08 | 0.00 | 100 | 1007.5 |
| 20260507035850 | 69 | 273 | 0.0 | 1.0 | 0.00 | 0.08 | 0.08 | 100 | 1007.7 |
| 20260507035301 | 69 | 273 | 0.0 | 1.0 | 0.00 | 0.08 | 0.08 | 100 | 1007.8 |
| 20260507034727 | 69 | 273 | 0.0 | 0.0 | 0.00 | 0.08 | 0.08 | 100 | 1008.0 |
| 20260507034139 | 69 | 273 | 0.0 | 0.0 | 0.00 | 0.08 | 0.08 | 100 | 1007.9 |
| 20260507033629 | 69 | 273 | 0.0 | 0.0 | 0.00 | 0.08 | 0.08 | 100 | 1007.8 |
| 20260507033155 | 68 | 273 | 0.0 | 0.0 | 0.00 | 0.08 | 0.08 | 100 | 1007.6 |
| 20260507032751 | 68 | 273 | 0.0 | 0.0 | 0.00 | 0.08 | 0.08 | 100 | 1007.4 |
| 20260507032525 | 68 | 273 | 0.0 | 0.0 | 0.00 | 0.08 | 0.08 | 100 | 1007.4 |
| 20260507032338 | 69 | 273 | 0.0 | 0.0 | 0.00 | 0.08 | 0.08 | 100 | 1007.3 |
| 20260507031331 | 69 | 273 | 0.0 | 0.0 | 0.00 | 0.08 | 0.08 | 100 | 1007.3 |
| 20260507030732 | 69 | 273 | 0.0 | 0.0 | 0.00 | 0.08 | 0.08 | 100 | 1007.0 |
| 20260507030230 | 69 | 273 | 0.0 | 0.0 | 0.00 | 0.08 | 0.08 | 100 | 1006.8 |
| 20260507025604 | 69 | 273 | 0.0 | 0.0 | 0.00 | 0.08 | 0.08 | 100 | 1007.0 |
| 20260507025034 | 69 | 273 | 0.0 | 0.0 | 0.00 | 0.08 | 0.08 | 100 | 1007.1 |
| 20260507024508 | 69 | 273 | 0.0 | 0.0 | 0.00 | 0.08 | 0.08 | 100 | 1007.2 |
| 20260507023938 | 69 | 273 | 0.0 | 1.0 | 0.00 | 0.08 | 0.08 | 100 | 1007.3 |
| 20260507023425 | 69 | 273 | 0.0 | 1.0 | 0.00 | 0.08 | 0.08 | 100 | 1007.4 |
| 20260507022834 | 69 | 273 | 0.0 | 1.0 | 0.00 | 0.08 | 0.08 | 100 | 1007.6 |
| 20260507022547 | 68 | 273 | 0.0 | 1.0 | 0.00 | 0.08 | 0.08 | 100 | 1007.7 |
| 20260507021952 | 68 | 273 | 0.0 | 0.0 | 0.00 | 0.08 | 0.08 | 100 | 1007.8 |
| 20260507021442 | 68 | 273 | 0.0 | 1.0 | 0.00 | 0.08 | 0.08 | 100 | 1007.8 |
| 20260507021244 | 68 | 273 | 0.0 | 1.0 | 0.00 | 0.08 | 0.08 | 100 | 1007.8 |
| 20260507020607 | 68 | 273 | 0.0 | 0.0 | 0.00 | 0.08 | 0.08 | 100 | 1007.8 |
| 20260507020054 | 68 | 273 | 0.0 | 0.0 | 0.00 | 0.08 | 0.08 | 100 | 1007.6 |
| 20260507015513 | 68 | 273 | 0.0 | 0.0 | 0.00 | 0.08 | 0.08 | 100 | 1007.5 |
| 20260507014939 | 68 | 273 | 0.0 | 0.0 | 0.00 | 0.08 | 0.08 | 100 | 1007.5 |
| 20260507014417 | 68 | 273 | 0.0 | 0.0 | 0.00 | 0.08 | 0.08 | 100 | 1007.6 |
| 20260507013846 | 68 | 273 | 0.0 | 0.0 | 0.00 | 0.08 | 0.08 | 100 | 1007.7 |
| 20260507013319 | 68 | 273 | 0.0 | 0.0 | 0.00 | 0.08 | 0.08 | 100 | 1007.6 |
| 20260507013003 | 68 | 273 | 0.0 | 0.0 | 0.00 | 0.08 | 0.08 | 100 | 1007.6 |
| 20260507012152 | 68 | 273 | 0.0 | 0.0 | 0.00 | 0.08 | 0.08 | 100 | 1007.5 |
| 20260507011623 | 68 | 273 | 0.0 | 0.0 | 0.00 | 0.08 | 0.08 | 100 | 1007.7 |
| 20260507011044 | 68 | 273 | 0.0 | 2.0 | 0.00 | 0.08 | 0.08 | 100 | 1007.7 |
| 20260507010511 | 68 | 273 | 0.0 | 2.0 | 0.00 | 0.08 | 0.08 | 100 | 1007.4 |
| 20260507005931 | 69 | 273 | 0.0 | 0.0 | 0.00 | 0.08 | 0.08 | 100 | 1007.4 |
| 20260507005420 | 69 | 273 | 0.0 | 0.0 | 0.00 | 0.08 | 0.08 | 100 | 1007.4 |
| 20260507004919 | 69 | 273 | 0.0 | 1.0 | 0.00 | 0.08 | 0.08 | 100 | 1007.4 |
| 20260507004239 | 69 | 273 | 0.0 | 1.0 | 0.00 | 0.08 | 0.08 | 100 | 1007.4 |
| 20260507003655 | 69 | 273 | 0.0 | 2.0 | 0.00 | 0.08 | 0.08 | 100 | 1007.4 |
| 20260507003127 | 69 | 273 | 0.0 | 2.0 | 0.00 | 0.08 | 0.08 | 100 | 1007.5 |
| 20260507002534 | 69 | 273 | 0.0 | 0.0 | 0.00 | 0.08 | 0.08 | 100 | 1007.6 |
| 20260507002011 | 69 | 273 | 0.0 | 0.0 | 0.00 | 0.08 | 0.08 | 100 | 1007.3 |
| 20260507001452 | 69 | 273 | 0.0 | 0.0 | 0.00 | 0.08 | 0.08 | 100 | 1007.2 |
| 20260507000926 | 69 | 273 | 0.0 | 2.0 | 0.00 | 0.08 | 0.08 | 100 | 1007.2 |
| 20260507000423 | 69 | 273 | 0.0 | 2.0 | 0.00 | 0.08 | 0.08 | 100 | 1007.1 |
| 20260506235753 | 70 | 273 | 0.0 | 1.0 | 0.00 | 0.08 | 0.08 | 100 | 1007.1 |
| 20260506235223 | 70 | 273 | 0.0 | 1.0 | 0.00 | 0.08 | 0.08 | 100 | 1007.1 |
| 20260506234654 | 70 | 273 | 0.0 | 3.0 | 0.00 | 0.08 | 0.08 | 100 | 1007.1 |
| 20260506234343 | 70 | 273 | 0.0 | 3.0 | 0.00 | 0.08 | 0.08 | 100 | 1007.2 |
| 20260506233459 | 70 | 273 | 0.0 | 1.0 | 0.00 | 0.08 | 0.08 | 100 | 1007.1 |
| 20260506233025 | 70 | 273 | 0.0 | 2.0 | 0.00 | 0.08 | 0.08 | 100 | 1007.0 |
| 20260506232406 | 70 | 273 | 0.0 | 7.0 | 0.00 | 0.08 | 0.08 | 100 | 1006.9 |
| 20260506231837 | 70 | 273 | 1.0 | 7.0 | 0.00 | 0.08 | 0.08 | 100 | 1007.0 |
| 20260506231418 | 70 | 261 | 1.0 | 8.0 | 0.00 | 0.08 | 0.08 | 100 | 1006.9 |
| 20260506231214 | 70 | 297 | 1.0 | 8.0 | 0.00 | 0.08 | 0.08 | 100 | 1006.8 |
| 20260506230121 | 70 | 267 | 1.0 | 7.0 | 0.00 | 0.08 | 0.08 | 100 | 1006.8 |
| 20260506225738 | 70 | 275 | 1.0 | 7.0 | 0.00 | 0.08 | 0.08 | 100 | 1006.9 |
| 20260506224948 | 70 | 223 | 0.0 | 7.0 | 0.00 | 0.08 | 0.08 | 100 | 1006.8 |
| 20260506224403 | 70 | 242 | 0.0 | 7.0 | 0.00 | 0.08 | 0.08 | 100 | 1006.8 |
| 20260506223832 | 70 | 211 | 1.0 | 7.0 | 0.00 | 0.08 | 0.08 | 100 | 1006.9 |
| 20260506223311 | 70 | 264 | 1.0 | 8.0 | 0.00 | 0.08 | 0.08 | 100 | 1006.9 |
| 20260506222716 | 70 | 261 | 1.0 | 7.0 | 0.00 | 0.08 | 0.08 | 100 | 1006.9 |
| 20260506222127 | 70 | 184 | 0.0 | 7.0 | 0.00 | 0.08 | 0.08 | 1 | 1006.8 |
| 20260506221559 | 70 | 193 | 1.0 | 7.0 | 0.00 | 0.08 | 0.08 | 1 | 1006.9 |
| 20260506221035 | 70 | 280 | 1.0 | 10.0 | 0.00 | 0.08 | 0.08 | 2 | 1007.1 |
| 20260506221022 | 70 | 243 | 2.0 | 10.0 | 0.00 | 0.08 | 0.08 | 2 | 1007.1 |
| 20260506215846 | 70 | 271 | 2.0 | 10.0 | 0.00 | 0.08 | 0.08 | 2 | 1007.1 |
| 20260506215419 | 70 | 162 | 2.0 | 10.0 | 0.00 | 0.08 | 0.08 | 2 | 1007.0 |
| 20260506215319 | 70 | 238 | 1.0 | 10.0 | 0.00 | 0.08 | 0.08 | 2 | 1007.0 |
| 20260506215109 | 70 | 238 | 1.0 | 10.0 | 0.00 | 0.08 | 0.08 | 2 | 1007.0 |
| 20260506214458 | 70 | 252 | 2.0 | 10.0 | 0.00 | 0.08 | 0.08 | 1 | 1007.0 |
| 20260506214239 | 70 | 252 | 2.0 | 10.0 | 0.00 | 0.08 | 0.08 | 1 | 1007.0 |
| 20260506213930 | 70 | 238 | 2.0 | 14.0 | 0.00 | 0.08 | 0.08 | 1 | 1007.0 |
| 20260506213137 | 70 | 235 | 1.0 | 9.0 | 0.00 | 0.08 | 0.08 | 100 | 1006.9 |
| 20260506212856 | 70 | 254 | 1.0 | 6.0 | 0.00 | 0.08 | 0.08 | 100 | 1007.0 |
| 20260506211959 | 70 | 189 | 1.0 | 8.0 | 0.00 | 0.08 | 0.08 | 100 | 1006.9 |
| 20260506211449 | 70 | 258 | 1.0 | 8.0 | 0.00 | 0.08 | 0.08 | 100 | 1007.0 |
| 20260506210831 | 70 | 187 | 2.0 | 10.0 | 0.00 | 0.08 | 0.08 | 100 | 1007.0 |
| 20260506210305 | 69 | 262 | 1.0 | 10.0 | 0.00 | 0.08 | 0.08 | 100 | 1006.8 |
| 20260506205726 | 69 | 238 | 1.0 | 6.0 | 0.00 | 0.08 | 0.08 | 100 | 1007.0 |
| 20260506205144 | 69 | 217 | 1.0 | 9.0 | 0.00 | 0.08 | 0.08 | 100 | 1006.9 |
| 20260506204620 | 69 | 254 | 1.0 | 9.0 | 0.00 | 0.08 | 0.08 | 100 | 1007.0 |
| 20260506204057 | 69 | 265 | 1.0 | 7.0 | 0.00 | 0.08 | 0.08 | 100 | 1007.0 |
| 20260506203751 | 69 | 236 | 1.0 | 10.0 | 0.00 | 0.08 | 0.08 | 100 | 1007.0 |
| 20260506203219 | 69 | 160 | 1.0 | 7.0 | 0.00 | 0.08 | 0.08 | 100 | 1007.1 |
| 20260506202347 | 69 | 239 | 1.0 | 5.0 | 0.00 | 0.08 | 0.08 | 100 | 1007.1 |
| 20260506202036 | 69 | 257 | 1.0 | 10.0 | 0.00 | 0.08 | 0.08 | 100 | 1007.0 |
| 20260506201508 | 69 | 168 | 0.0 | 10.0 | 0.00 | 0.08 | 0.08 | 100 | 1007.0 |
| 20260506201247 | 69 | 168 | 0.0 | 10.0 | 0.00 | 0.08 | 0.08 | 100 | 1007.0 |
| 20260506200708 | 69 | 250 | 1.0 | 8.0 | 0.00 | 0.08 | 0.08 | 100 | 1007.0 |
| 20260506200200 | 69 | 274 | 1.0 | 7.0 | 0.00 | 0.08 | 0.08 | 100 | 1007.0 |
| 20260506195547 | 69 | 212 | 2.0 | 11.0 | 0.00 | 0.08 | 0.08 | 100 | 1007.2 |
| 20260506195008 | 69 | 273 | 2.0 | 6.0 | 0.00 | 0.08 | 0.08 | 100 | 1007.3 |
| 20260506194407 | 69 | 271 | 2.0 | 12.0 | 0.00 | 0.08 | 0.08 | 100 | 1007.5 |
| 20260506193829 | 69 | 248 | 1.0 | 10.0 | 0.00 | 0.08 | 0.08 | 100 | 1007.6 |
| 20260506193257 | 69 | 157 | 1.0 | 6.0 | 0.00 | 0.08 | 0.08 | 100 | 1007.5 |
| 20260506192642 | 69 | 259 | 2.0 | 10.0 | 0.00 | 0.08 | 0.08 | 100 | 1007.7 |
| 20260506192100 | 69 | 242 | 1.0 | 10.0 | 0.00 | 0.08 | 0.08 | 100 | 1007.6 |
| 20260506191504 | 69 | 264 | 1.0 | 11.0 | 0.00 | 0.08 | 0.08 | 100 | 1007.5 |
| 20260506191257 | 69 | 193 | 1.0 | 11.0 | 0.00 | 0.08 | 0.08 | 100 | 1007.5 |
| 20260506191100 | 69 | 193 | 1.0 | 11.0 | 0.00 | 0.08 | 0.08 | 100 | 1007.5 |
| 20260506190355 | 69 | 250 | 1.0 | 9.0 | 0.00 | 0.08 | 0.08 | 100 | 1007.8 |
| 20260506185835 | 69 | 263 | 1.0 | 11.0 | 0.00 | 0.08 | 0.08 | 100 | 1007.6 |
| 20260506185307 | 69 | 226 | 1.0 | 11.0 | 0.00 | 0.08 | 0.08 | 100 | 1007.5 |
| 20260506184740 | 69 | 211 | 2.0 | 11.0 | 0.00 | 0.08 | 0.08 | 100 | 1007.7 |
| 20260506184436 | 69 | 190 | 3.0 | 11.0 | 0.00 | 0.08 | 0.08 | 100 | 1007.9 |
| 20260506183910 | 69 | 247 | 1.0 | 9.0 | 0.00 | 0.08 | 0.08 | 100 | 1008.2 |
| 20260506183350 | 70 | 200 | 0.0 | 6.0 | 0.00 | 0.08 | 0.08 | 100 | 1008.2 |
| 20260506182605 | 70 | 181 | 1.0 | 9.0 | 0.00 | 0.08 | 0.08 | 100 | 1008.1 |
| 20260506182044 | 70 | 150 | 1.0 | 8.0 | 0.00 | 0.08 | 0.08 | 100 | 1007.9 |
| 20260506181738 | 70 | 187 | 1.0 | 8.0 | 0.00 | 0.08 | 0.08 | 100 | 1008.2 |
| 20260506180945 | 70 | 198 | 2.0 | 9.0 | 0.00 | 0.08 | 0.08 | 100 | 1008.3 |
| 20260506180411 | 69 | 236 | 1.0 | 9.0 | 0.00 | 0.08 | 0.08 | 100 | 1008.4 |
| 20260506175843 | 69 | 203 | 1.0 | 8.0 | 0.00 | 0.08 | 0.08 | 100 | 1008.4 |
| 20260506175313 | 69 | 271 | 1.0 | 7.0 | 0.00 | 0.08 | 0.08 | 100 | 1008.7 |
| 20260506174748 | 69 | 173 | 1.0 | 10.0 | 0.00 | 0.08 | 0.08 | 100 | 1008.6 |
| 20260506174225 | 69 | 278 | 1.0 | 10.0 | 0.00 | 0.08 | 0.08 | 100 | 1008.6 |
| 20260506173703 | 69 | 188 | 1.0 | 8.0 | 0.00 | 0.08 | 0.08 | 100 | 1008.5 |
| 20260506173131 | 69 | 197 | 1.0 | 11.0 | 0.00 | 0.08 | 0.08 | 100 | 1008.6 |
| 20260506172608 | 68 | 160 | 1.0 | 11.0 | 0.00 | 0.08 | 0.08 | 100 | 1008.7 |
| 20260506172046 | 68 | 218 | 1.0 | 10.0 | 0.01 | 0.08 | 0.08 | 100 | 1008.6 |
| 20260506171513 | 68 | 165 | 1.0 | 10.0 | 0.01 | 0.08 | 0.08 | 100 | 1008.7 |
| 20260506170944 | 67 | 182 | 1.0 | 9.0 | 0.02 | 0.08 | 0.08 | 100 | 1008.7 |
| 20260506170420 | 67 | 149 | 1.0 | 7.0 | 0.02 | 0.08 | 0.08 | 100 | 1008.6 |
| 20260506165856 | 67 | 208 | 1.0 | 7.0 | 0.02 | 0.08 | 0.08 | 100 | 1008.9 |
| 20260506165319 | 67 | 171 | 0.0 | 8.0 | 0.04 | 0.08 | 0.08 | 100 | 1008.8 |
| 20260506165023 | 66 | 228 | 0.0 | 8.0 | 0.04 | 0.08 | 0.08 | 100 | 1009.0 |
| 20260506164236 | 67 | 146 | 0.0 | 6.0 | 0.05 | 0.08 | 0.08 | 100 | 1008.9 |
| 20260506164112 | 66 | 200 | 1.0 | 10.0 | 0.06 | 0.08 | 0.08 | 100 | 1008.7 |
| 20260506163738 | 67 | 205 | 1.0 | 10.0 | 0.06 | 0.08 | 0.08 | 100 | 1008.9 |
| 20260506162614 | 66 | 238 | 0.0 | 6.0 | 0.06 | 0.08 | 0.08 | 100 | 1008.8 |
| 20260506162059 | 66 | 177 | 0.0 | 11.0 | 0.05 | 0.07 | 0.07 | 100 | 1008.8 |
| 20260506161525 | 66 | 146 | 1.0 | 11.0 | 0.05 | 0.07 | 0.07 | 100 | 1009.0 |
| 20260506161454 | 67 | 213 | 1.0 | 1.0 | 0.04 | 0.06 | 0.06 | 100 | 1009.0 |
| 20260506160702 | 66 | 235 | 1.0 | 7.0 | 0.04 | 0.06 | 0.06 | 100 | 1009.3 |
| 20260506155922 | 67 | 167 | 1.0 | 5.0 | 0.04 | 0.06 | 0.06 | 100 | 1009.4 |
| 20260506155825 | 67 | 187 | 1.0 | 7.0 | 0.02 | 0.04 | 0.04 | 100 | 1009.6 |
| 20260506154806 | 67 | 190 | 1.0 | 5.0 | 0.03 | 0.04 | 0.04 | 100 | 1009.6 |
| 20260506154242 | 67 | 225 | 0.0 | 5.0 | 0.02 | 0.03 | 0.03 | 100 | 1009.7 |
| 20260506153716 | 66 | 183 | 1.0 | 8.0 | 0.01 | 0.02 | 0.02 | 100 | 1009.7 |
| 20260506153200 | 66 | 183 | 1.0 | 8.0 | 0.02 | 0.02 | 0.02 | 100 | 1009.8 |
| 20260506152701 | 66 | 188 | 0.0 | 7.0 | 0.02 | 0.02 | 0.02 | 100 | 1009.9 |
| 20260506152153 | 66 | 147 | 0.0 | 7.0 | 0.02 | 0.02 | 0.02 | 100 | 1010.0 |
| 20260506151606 | 67 | 162 | 1.0 | 9.0 | 0.02 | 0.02 | 0.02 | 100 | 1010.0 |
| 20260506151359 | 67 | 195 | 1.0 | 6.0 | 0.02 | 0.02 | 0.02 | 100 | 1010.0 |
| 20260506150305 | 67 | 191 | 0.0 | 5.0 | 0.02 | 0.02 | 0.02 | 100 | 1010.0 |
| 20260506150241 | 67 | 201 | 0.0 | 0.0 | 0.02 | 0.02 | 0.02 | 100 | 1009.9 |
| 20260506145147 | 67 | 201 | 0.0 | 0.0 | 0.01 | 0.01 | 0.01 | 100 | 1010.1 |
| 20260506144608 | 67 | 201 | 0.0 | 5.0 | 0.01 | 0.01 | 0.01 | 100 | 1010.0 |
| 20260506144535 | 66 | 201 | 0.0 | 5.0 | 0.01 | 0.01 | 0.01 | 100 | 1009.9 |
| 20260506143540 | 66 | 202 | 0.0 | 4.0 | 0.00 | 0.00 | 0.00 | 8 | 1010.0 |
| 20260506143122 | 66 | 202 | 0.0 | 4.0 | 0.00 | 0.00 | 0.00 | 17 | 1009.9 |
| 20260506142617 | 67 | 202 | 0.0 | 7.0 | 0.00 | 0.00 | 0.00 | 24 | 1009.8 |
| 20260506141940 | 67 | 202 | 1.0 | 2.0 | 0.00 | 0.00 | 0.00 | 32 | 1009.9 |
| 20260506141739 | 67 | 186 | 1.0 | 7.0 | 0.00 | 0.00 | 0.00 | 36 | 1009.6 |
| 20260506141127 | 67 | 221 | 1.0 | 4.0 | 0.00 | 0.00 | 0.00 | 38 | 1009.8 |
| 20260506140931 | 67 | 221 | 1.0 | 4.0 | 0.00 | 0.00 | 0.00 | 38 | 1009.8 |
| 20260506140257 | 67 | 228 | 1.0 | 11.0 | 0.00 | 0.00 | 0.00 | 38 | 1009.8 |
| 20260506140011 | 68 | 229 | 1.0 | 10.0 | 0.00 | 0.00 | 0.00 | 38 | 1009.9 |
| 20260506140000 | 68 | 197 | 1.0 | 11.0 | 0.00 | 0.00 | 0.00 | 38 | 1009.8 |
| 20260506134402 | 68 | 188 | 1.0 | 10.0 | 0.00 | 0.00 | 0.00 | 38 | 1009.8 |
| 20260506133739 | 67 | 182 | 1.0 | 14.0 | 0.00 | 0.00 | 0.00 | 38 | 1009.7 |
| 20260506133200 | 67 | 168 | 1.0 | 14.0 | 0.00 | 0.00 | 0.00 | 38 | 1009.7 |
| 20260506132648 | 67 | 181 | 1.0 | 8.0 | 0.00 | 0.00 | 0.00 | 38 | 1009.6 |
| 20260506132037 | 67 | 159 | 1.0 | 8.0 | 0.00 | 0.00 | 0.00 | 37 | 1009.7 |
| 20260506131813 | 67 | 53 | 2.0 | 9.0 | 0.00 | 0.00 | 0.00 | 37 | 1009.5 |
| 20260506131743 | 67 | 167 | 1.0 | 7.0 | 0.00 | 0.00 | 0.00 | 36 | 1009.5 |
| 20260506131131 | 67 | 132 | 2.0 | 8.0 | 0.00 | 0.00 | 0.00 | 37 | 1009.5 |
| 20260506125752 | 67 | 171 | 1.0 | 6.0 | 0.00 | 0.00 | 0.00 | 36 | 1009.6 |
| 20260506125205 | 67 | 172 | 1.0 | 5.0 | 0.00 | 0.00 | 0.00 | 36 | 1009.5 |
| 20260506124501 | 67 | 261 | 1.0 | 8.0 | 0.00 | 0.00 | 0.00 | 37 | 1009.4 |
| 20260506123432 | 67 | 200 | 1.0 | 11.0 | 0.00 | 0.00 | 0.00 | 36 | 1009.5 |
| 20260506122900 | 67 | 242 | 1.0 | 11.0 | 0.00 | 0.00 | 0.00 | 36 | 1009.7 |
| 20260506122400 | 66 | 224 | 1.0 | 15.0 | 0.00 | 0.00 | 0.00 | 36 | 1009.9 |
| 20260506121906 | 66 | 134 | 1.0 | 9.0 | 0.00 | 0.00 | 0.00 | 36 | 1010.0 |
| 20260506121851 | 66 | 284 | 1.0 | 10.0 | 0.00 | 0.00 | 0.00 | 36 | 1009.9 |
| 20260506121830 | 66 | 232 | 1.0 | 15.0 | 0.00 | 0.00 | 0.00 | 36 | 1009.9 |
| 20260506120455 | 66 | 130 | 1.0 | 9.0 | 0.00 | 0.00 | 0.00 | 36 | 1010.0 |
| 20260506120248 | 66 | 130 | 1.0 | 9.0 | 0.00 | 0.00 | 0.00 | 36 | 1010.0 |
| 20260506115521 | 66 | 180 | 1.0 | 6.0 | 0.00 | 0.00 | 0.00 | 36 | 1010.0 |
| 20260506114930 | 66 | 168 | 1.0 | 9.0 | 0.00 | 0.00 | 0.00 | 36 | 1010.1 |
| 20260506114343 | 66 | 180 | 1.0 | 9.0 | 0.00 | 0.00 | 0.00 | 35 | 1009.9 |
| 20260506113756 | 66 | 162 | 1.0 | 10.0 | 0.00 | 0.00 | 0.00 | 34 | 1009.9 |
| 20260506113545 | 65 | 204 | 0.0 | 10.0 | 0.00 | 0.00 | 0.00 | 33 | 1009.8 |
| 20260506112617 | 65 | 172 | 0.0 | 7.0 | 0.00 | 0.00 | 0.00 | 33 | 1009.8 |
| 20260506112412 | 65 | 227 | 1.0 | 8.0 | 0.00 | 0.00 | 0.00 | 33 | 1009.8 |
| 20260506112153 | 65 | 227 | 1.0 | 8.0 | 0.00 | 0.00 | 0.00 | 33 | 1009.8 |
| 20260506111549 | 64 | 198 | 2.0 | 8.0 | 0.00 | 0.00 | 0.00 | 34 | 1009.9 |
| 20260506111117 | 64 | 156 | 1.0 | 10.0 | 0.00 | 0.00 | 0.00 | 34 | 1009.7 |
| 20260506111051 | 64 | 233 | 0.0 | 10.0 | 0.00 | 0.00 | 0.00 | 34 | 1009.6 |
| 20260506111024 | 64 | 165 | 1.0 | 7.0 | 0.00 | 0.00 | 0.00 | 34 | 1009.7 |
| 20260506105447 | 64 | 152 | 1.0 | 12.0 | 0.00 | 0.00 | 0.00 | 33 | 1009.7 |
| 20260506105246 | 64 | 194 | 1.0 | 12.0 | 0.00 | 0.00 | 0.00 | 33 | 1009.7 |
| 20260506104730 | 64 | 182 | 1.0 | 12.0 | 0.00 | 0.00 | 0.00 | 33 | 1009.6 |
| 20260506103822 | 64 | 179 | 2.0 | 5.0 | 0.00 | 0.00 | 0.00 | 32 | 1009.5 |
| 20260506103758 | 64 | 175 | 2.0 | 12.0 | 0.00 | 0.00 | 0.00 | 32 | 1009.4 |
| 20260506102543 | 64 | 188 | 1.0 | 9.0 | 0.00 | 0.00 | 0.00 | 31 | 1009.6 |
| 20260506102519 | 64 | 173 | 1.0 | 13.0 | 0.00 | 0.00 | 0.00 | 31 | 1009.5 |
| 20260506101315 | 64 | 234 | 1.0 | 9.0 | 0.00 | 0.00 | 0.00 | 30 | 1009.5 |
| 20260506100720 | 64 | 186 | 1.0 | 12.0 | 0.00 | 0.00 | 0.00 | 30 | 1009.6 |
| 20260506100234 | 64 | 179 | 1.0 | 12.0 | 0.00 | 0.00 | 0.00 | 29 | 1009.5 |
| 20260506095917 | 64 | 184 | 1.0 | 11.0 | 0.00 | 0.00 | 0.00 | 29 | 1009.6 |
| 20260506095105 | 64 | 252 | 1.0 | 7.0 | 0.00 | 0.00 | 0.00 | 28 | 1009.5 |
| 20260506094459 | 64 | 213 | 0.0 | 6.0 | 0.00 | 0.00 | 0.00 | 27 | 1009.6 |
| 20260506093922 | 64 | 216 | 0.0 | 6.0 | 0.00 | 0.00 | 0.00 | 27 | 1009.5 |
| 20260506093721 | 64 | 256 | 0.0 | 10.0 | 0.00 | 0.00 | 0.00 | 26 | 1009.6 |
| 20260506092731 | 64 | 161 | 1.0 | 10.0 | 0.00 | 0.00 | 0.00 | 26 | 1009.4 |
| 20260506092138 | 64 | 203 | 1.0 | 12.0 | 0.00 | 0.00 | 0.00 | 26 | 1009.5 |
| 20260506091549 | 64 | 176 | 1.0 | 12.0 | 0.00 | 0.00 | 0.00 | 26 | 1009.5 |
| 20260506091017 | 64 | 210 | 1.0 | 12.0 | 0.00 | 0.00 | 0.00 | 26 | 1009.5 |
| 20260506090950 | 64 | 187 | 1.0 | 12.0 | 0.00 | 0.00 | 0.00 | 26 | 1009.6 |
| 20260506085926 | 64 | 155 | 0.0 | 10.0 | 0.00 | 0.00 | 0.00 | 26 | 1009.6 |
| 20260506085315 | 64 | 186 | 1.0 | 15.0 | 0.00 | 0.00 | 0.00 | 26 | 1009.6 |
| 20260506084744 | 64 | 195 | 2.0 | 15.0 | 0.00 | 0.00 | 0.00 | 27 | 1009.6 |
| 20260506084212 | 64 | 219 | 1.0 | 13.0 | 0.00 | 0.00 | 0.00 | 27 | 1009.6 |
| 20260506083629 | 64 | 169 | 0.0 | 7.0 | 0.00 | 0.00 | 0.00 | 27 | 1009.7 |
| 20260506083047 | 65 | 194 | 1.0 | 6.0 | 0.00 | 0.00 | 0.00 | 28 | 1009.6 |
| 20260506082512 | 65 | 175 | 1.0 | 9.0 | 0.00 | 0.00 | 0.00 | 28 | 1009.5 |
| 20260506081942 | 65 | 175 | 1.0 | 9.0 | 0.00 | 0.00 | 0.00 | 29 | 1009.6 |
| 20260506081349 | 65 | 171 | 1.0 | 12.0 | 0.00 | 0.00 | 0.00 | 30 | 1009.7 |
| 20260506080824 | 65 | 172 | 1.0 | 2.0 | 0.00 | 0.00 | 0.00 | 30 | 1009.6 |
| 20260506080312 | 65 | 235 | 1.0 | 12.0 | 0.00 | 0.00 | 0.00 | 31 | 1009.7 |
| 20260506073427 | 65 | 182 | 0.0 | 5.0 | 0.00 | 0.00 | 0.00 | 34 | 1009.8 |
| 20260506072821 | 65 | 182 | 1.0 | 8.0 | 0.00 | 0.00 | 0.00 | 35 | 1010.0 |
| 20260506072245 | 65 | 186 | 1.0 | 8.0 | 0.00 | 0.00 | 0.00 | 36 | 1010.0 |
| 20260506071718 | 65 | 202 | 0.0 | 8.0 | 0.00 | 0.00 | 0.00 | 37 | 1010.0 |
| 20260506071200 | 66 | 206 | 1.0 | 8.0 | 0.00 | 0.00 | 0.00 | 38 | 1010.0 |
| 20260506070856 | 66 | 169 | 1.0 | 0.0 | 0.00 | 0.00 | 0.00 | 39 | 1010.0 |
| 20260506070115 | 66 | 233 | 1.0 | 11.0 | 0.00 | 0.00 | 0.00 | 41 | 1009.9 |
| 20260506062501 | 67 | 201 | 1.0 | 9.0 | 0.00 | 0.00 | 0.00 | 47 | 1010.0 |
| 20260506062427 | 67 | 196 | 1.0 | 9.0 | 0.00 | 0.00 | 0.00 | 47 | 1010.0 |
| 20260506062207 | 67 | 196 | 1.0 | 9.0 | 0.00 | 0.00 | 0.00 | 47 | 1010.0 |
| 20260506061724 | 67 | 198 | 1.0 | 9.0 | 0.00 | 0.00 | 0.00 | 48 | 1010.0 |
| 20260506060829 | 68 | 188 | 1.0 | 6.0 | 0.00 | 0.00 | 0.00 | 51 | 1010.1 |
| 20260506060803 | 67 | 183 | 0.0 | 9.0 | 0.00 | 0.00 | 0.00 | 49 | 1010.1 |
| 20260506060604 | 68 | 182 | 1.0 | 4.0 | 0.00 | 0.00 | 0.00 | 50 | 1010.1 |